GW5139 Weather Reports


Display with metric or nautical units.
time (UTC)temp
F
wind
direction
speed
MPH
gust
MPH
rain 1hr
in
rain 24hr
in
rain mn
in
humidity
%
barometer
mb
20260508002125 55 274 2.0 8.0 0.00 0.00 0.00 44 1013.9
20260508001619 55 265 3.0 6.0 0.00 0.00 0.00 43 1013.8
20260508001116 56 278 4.0 9.0 0.00 0.00 0.00 42 1013.6
20260508000612 56 253 3.0 8.0 0.00 0.00 0.00 42 1013.5
20260508000110 56 267 5.0 7.0 0.00 0.00 0.00 41 1013.7
20260507235606 57 263 2.0 8.0 0.00 0.00 0.00 43 1013.5
20260507235104 57 295 4.0 6.0 0.00 0.00 0.00 43 1013.3
20260507234600 57 284 8.0 9.0 0.00 0.00 0.00 42 1013.2
20260507234056 58 283 6.0 10.0 0.00 0.00 0.00 41 1013.2
20260507233553 59 275 4.0 11.0 0.00 0.00 0.00 44 1013.3
20260507233052 59 252 3.0 6.0 0.00 0.00 0.00 42 1013.1
20260507232547 59 287 4.0 6.0 0.00 0.00 0.00 42 1012.9
20260507232045 58 257 4.0 6.0 0.00 0.00 0.00 43 1013.0
20260507231541 58 260 2.0 3.0 0.00 0.00 0.00 46 1013.1
20260507231039 59 267 8.0 11.0 0.00 0.00 0.00 40 1012.9
20260507230535 59 270 6.0 9.0 0.00 0.00 0.00 40 1013.0
20260507230032 59 294 7.0 13.0 0.00 0.00 0.00 42 1012.9
20260507225527 59 289 4.0 8.0 0.00 0.00 0.00 43 1012.8
20260507225024 60 281 3.0 13.0 0.00 0.00 0.00 43 1012.8
20260507224519 60 262 10.0 13.0 0.00 0.00 0.00 41 1012.8
20260507224016 61 272 3.0 7.0 0.00 0.00 0.00 41 1012.9
20260507223512 60 317 1.0 10.0 0.00 0.00 0.00 44 1012.7
20260507223010 59 292 4.0 6.0 0.00 0.00 0.00 45 1012.6
20260507222507 58 253 6.0 8.0 0.00 0.00 0.00 43 1012.7
20260507222003 58 240 7.0 9.0 0.00 0.00 0.00 45 1012.6
20260507221459 58 273 3.0 8.0 0.00 0.00 0.00 46 1012.7
20260507220956 58 277 4.0 7.0 0.00 0.00 0.00 47 1012.6
20260507220454 58 288 4.0 9.0 0.00 0.00 0.00 43 1012.6
20260507215950 58 278 3.0 6.0 0.00 0.00 0.00 44 1012.5
20260507215446 58 272 2.0 6.0 0.00 0.00 0.00 44 1012.5
20260507214944 58 283 3.0 8.0 0.00 0.00 0.00 45 1012.6
20260507214442 59 253 5.0 13.0 0.00 0.00 0.00 43 1012.4
20260507213937 59 310 0.0 4.0 0.00 0.00 0.00 50 1012.2
20260507213428 59 284 2.0 4.0 0.00 0.00 0.00 46 1012.4
20260507212925 59 275 4.0 8.0 0.00 0.00 0.00 47 1012.2
20260507212420 59 290 0.0 3.0 0.00 0.00 0.00 53 1012.3
20260507211918 59 256 1.0 4.0 0.00 0.00 0.00 49 1012.2
20260507211414 61 280 4.0 9.0 0.00 0.00 0.00 40 1012.0
20260507210911 63 338 0.0 4.0 0.00 0.00 0.00 52 1012.0
20260507210408 61 271 4.0 4.0 0.00 0.00 0.00 48 1012.1
20260507205904 62 268 2.0 3.0 0.00 0.00 0.00 45 1012.1
20260507205402 62 254 1.0 7.0 0.00 0.00 0.00 47 1012.0
20260507204858 61 181 3.0 4.0 0.00 0.00 0.00 42 1012.3
20260507204355 60 344 0.0 6.0 0.00 0.00 0.00 45 1012.2
20260507203852 60 226 9.0 10.0 0.00 0.00 0.00 41 1012.1
20260507203350 63 258 2.0 9.0 0.00 0.00 0.00 43 1012.0
20260507202846 63 221 1.0 7.0 0.00 0.00 0.00 41 1012.0
20260507202337 63 247 6.0 8.0 0.00 0.00 0.00 45 1012.2
20260507201833 62 274 6.0 10.0 0.00 0.00 0.00 43 1012.3
20260507201328 59 287 4.0 15.0 0.00 0.00 0.00 49 1012.1
20260507200825 62 273 6.0 9.0 0.00 0.00 0.00 43 1012.2
20260507200321 59 254 2.0 8.0 0.00 0.00 0.00 55 1012.3
20260507195817 59 278 9.0 11.0 0.00 0.00 0.00 43 1012.3
20260507195314 59 279 5.0 7.0 0.00 0.00 0.00 49 1012.5
20260507194812 60 280 4.0 7.0 0.00 0.00 0.00 47 1012.6
20260507194308 62 301 3.0 9.0 0.00 0.00 0.00 51 1012.8
20260507193805 60 260 6.0 8.0 0.00 0.00 0.00 46 1012.7
20260507193302 59 242 3.0 6.0 0.00 0.00 0.00 47 1012.8
20260507192757 60 282 9.0 15.0 0.00 0.00 0.00 46 1012.7
20260507192254 60 247 6.0 8.0 0.00 0.00 0.00 47 1012.7
20260507191750 60 303 2.0 4.0 0.00 0.00 0.00 49 1012.6
20260507191247 60 257 9.0 13.0 0.00 0.00 0.00 43 1012.7
20260507190743 61 252 4.0 14.0 0.00 0.00 0.00 48 1012.7
20260507190242 59 286 4.0 6.0 0.00 0.00 0.00 53 1012.8
20260507185740 60 261 5.0 11.0 0.00 0.00 0.00 49 1012.9
20260507185237 59 269 3.0 7.0 0.00 0.00 0.00 54 1012.8
20260507184735 60 289 4.0 7.0 0.00 0.00 0.00 48 1012.9
20260507184232 63 233 3.0 6.0 0.00 0.00 0.00 50 1012.9
20260507183729 61 293 10.0 13.0 0.00 0.00 0.00 43 1012.8
20260507183226 59 297 1.0 3.0 0.00 0.00 0.00 56 1012.8
20260507182723 59 257 3.0 7.0 0.00 0.00 0.00 49 1012.9
20260507182218 60 274 4.0 9.0 0.00 0.00 0.00 47 1013.0
20260507181715 61 242 2.0 7.0 0.00 0.00 0.00 48 1012.8
20260507181211 60 282 7.0 14.0 0.00 0.00 0.00 49 1012.9
20260507180709 59 281 7.0 9.0 0.00 0.00 0.00 48 1012.9
20260507180205 59 239 5.0 8.0 0.00 0.00 0.00 49 1013.0
20260507175700 58 248 5.0 8.0 0.00 0.00 0.00 46 1013.0
20260507175158 58 279 1.0 8.0 0.00 0.00 0.00 54 1013.0
20260507174655 60 254 6.0 9.0 0.00 0.00 0.00 44 1013.0
20260507174153 59 278 7.0 9.0 0.00 0.00 0.00 46 1013.0
20260507173650 60 200 2.0 8.0 0.00 0.00 0.00 47 1013.5
20260507173147 60 278 4.0 7.0 0.00 0.00 0.00 54 1013.3
20260507172643 61 250 5.0 7.0 0.00 0.00 0.00 52 1013.3
20260507172141 60 185 2.0 9.0 0.00 0.00 0.00 47 1013.5
20260507171641 58 256 1.0 7.0 0.00 0.00 0.00 51 1013.6
20260507171138 60 282 0.0 7.0 0.00 0.00 0.00 58 1013.7
20260507170635 61 269 6.0 8.0 0.00 0.00 0.00 53 1013.9
20260507170132 60 236 3.0 6.0 0.00 0.00 0.00 54 1013.8
20260507165628 59 237 5.0 8.0 0.00 0.00 0.00 49 1014.0
20260507165124 59 88 1.0 3.0 0.00 0.00 0.00 56 1013.9
20260507164620 58 216 4.0 7.0 0.00 0.00 0.00 51 1013.8
20260507164117 60 268 5.0 10.0 0.00 0.00 0.00 50 1013.7
20260507163615 59 295 6.0 7.0 0.00 0.00 0.00 50 1013.9
20260507163113 58 274 6.0 8.0 0.00 0.00 0.00 52 1014.0
20260507162613 58 257 4.0 10.0 0.00 0.00 0.00 49 1014.1
20260507162110 59 246 2.0 8.0 0.00 0.00 0.00 50 1014.1
20260507161606 57 292 2.0 10.0 0.00 0.00 0.00 56 1014.1
20260507161103 56 303 5.0 8.0 0.00 0.00 0.00 55 1014.2
20260507160600 57 280 7.0 8.0 0.00 0.00 0.00 51 1014.3
20260507160056 57 236 4.0 7.0 0.00 0.00 0.00 51 1014.3
20260507155551 55 259 4.0 6.0 0.00 0.00 0.00 56 1014.3
20260507155049 55 286 4.0 7.0 0.00 0.00 0.00 56 1014.4
20260507154545 56 244 1.0 4.0 0.00 0.00 0.00 53 1014.3
20260507154043 56 239 2.0 3.0 0.00 0.00 0.00 55 1014.3
20260507153539 57 300 2.0 6.0 0.00 0.00 0.00 55 1014.4
20260507153035 56 274 4.0 6.0 0.00 0.00 0.00 49 1014.4
20260507152531 55 226 0.0 6.0 0.00 0.00 0.00 54 1014.5
20260507152028 56 280 3.0 4.0 0.00 0.00 0.00 60 1014.4
20260507151524 58 9 0.0 4.0 0.00 0.00 0.00 64 1014.8
20260507151021 56 239 2.0 6.0 0.00 0.00 0.00 55 1014.6
20260507150518 57 294 3.0 6.0 0.00 0.00 0.00 58 1014.8
20260507150015 57 214 1.0 3.0 0.00 0.00 0.00 54 1014.5
20260507145510 56 254 1.0 4.0 0.00 0.00 0.00 54 1014.8
20260507145008 55 248 2.0 6.0 0.00 0.00 0.00 56 1015.0
20260507144504 55 254 2.0 7.0 0.00 0.00 0.00 59 1015.0
20260507144001 55 255 2.0 9.0 0.00 0.00 0.00 56 1014.9
20260507143459 55 222 6.0 7.0 0.00 0.00 0.00 53 1015.0
20260507142955 55 263 3.0 4.0 0.00 0.00 0.00 62 1015.1
20260507142451 54 288 4.0 7.0 0.00 0.00 0.00 62 1015.2
20260507141948 55 258 2.0 4.0 0.00 0.00 0.00 55 1015.1
20260507141444 55 358 1.0 7.0 0.00 0.00 0.00 60 1015.2
20260507140941 55 92 0.0 3.0 0.00 0.00 0.00 62 1015.3
20260507140438 55 87 1.0 1.0 0.00 0.00 0.00 53 1015.2
20260507135936 55 242 0.0 3.0 0.00 0.00 0.00 57 1015.3
20260507135432 57 12 0.0 1.0 0.00 0.00 0.00 60 1015.4
20260507134930 57 104 0.0 0.0 0.00 0.00 0.00 61 1015.7
20260507134426 56 100 0.0 1.0 0.00 0.00 0.00 58 1015.5
20260507133922 55 103 0.0 0.0 0.00 0.00 0.00 55 1015.6
20260507133418 54 82 1.0 2.0 0.00 0.00 0.00 68 1015.6
20260507132917 54 65 1.0 2.0 0.00 0.00 0.00 65 1015.7
20260507132413 54 232 0.0 2.0 0.00 0.00 0.00 66 1015.8
20260507131909 55 95 0.0 0.0 0.00 0.00 0.00 66 1015.6
20260507131406 54 96 1.0 2.0 0.00 0.00 0.00 66 1015.8
20260507130903 54 86 2.0 2.0 0.00 0.00 0.00 66 1015.7
20260507130400 54 76 0.0 0.0 0.00 0.00 0.00 67 1015.7
20260507125859 53 99 1.0 2.0 0.00 0.00 0.00 70 1015.9
20260507125356 53 96 1.0 2.0 0.00 0.00 0.00 72 1015.7
20260507124854 53 83 1.0 1.0 0.00 0.00 0.00 73 1015.8
20260507124349 52 90 1.0 1.0 0.00 0.00 0.00 78 1015.7
20260507123848 52 107 2.0 2.0 0.00 0.00 0.00 75 1015.7
20260507123345 51 86 0.0 2.0 0.00 0.00 0.00 75 1015.8
20260507122841 51 223 0.0 0.0 0.00 0.00 0.00 77 1016.0
20260507122337 51 107 0.0 0.0 0.00 0.00 0.00 79 1015.8
20260507121833 50 107 0.0 0.0 0.00 0.00 0.00 87 1015.9
20260507121329 48 107 0.0 0.0 0.00 0.00 0.00 88 1015.7
20260507120826 48 107 0.0 0.0 0.00 0.00 0.00 89 1015.9
20260507120322 48 107 0.0 0.0 0.00 0.00 0.00 92 1015.9
20260507115818 47 107 0.0 0.0 0.00 0.00 0.00 94 1015.7
20260507115314 47 107 0.0 0.0 0.00 0.00 0.00 92 1015.4
20260507114810 47 107 0.0 0.0 0.00 0.00 0.00 94 1015.5
20260507114307 46 108 0.0 0.0 0.00 0.00 0.00 96 1015.6
20260507113805 46 108 0.0 0.0 0.00 0.00 0.00 97 1015.4
20260507113301 46 108 0.0 0.0 0.00 0.00 0.00 98 1015.5
20260507112759 46 108 0.0 0.0 0.00 0.00 0.00 99 1015.3
20260507112256 46 108 0.0 0.0 0.00 0.00 0.00 99 1015.2
20260507111754 45 108 0.0 0.0 0.00 0.00 0.00 99 1015.4
20260507111250 45 108 0.0 0.0 0.00 0.00 0.00 99 1015.2
20260507110746 44 108 0.0 0.0 0.00 0.00 0.00 99 1015.5
20260507110243 44 108 0.0 0.0 0.00 0.00 0.00 99 1015.2
20260507105740 43 107 0.0 0.0 0.00 0.00 0.00 99 1015.1
20260507105236 43 107 0.0 0.0 0.00 0.00 0.00 99 1015.2
20260507104733 43 107 0.0 0.0 0.00 0.00 0.00 99 1015.1
20260507104230 43 107 0.0 0.0 0.00 0.00 0.00 99 1014.9
20260507103726 43 107 0.0 0.0 0.00 0.00 0.00 99 1014.9
20260507103222 43 107 0.0 0.0 0.00 0.00 0.00 99 1014.9
20260507102718 43 107 0.0 0.0 0.00 0.00 0.00 99 1014.6
20260507102215 43 107 0.0 0.0 0.00 0.00 0.00 99 1014.6
20260507101712 44 107 0.0 0.0 0.00 0.00 0.00 99 1014.5
20260507101207 44 108 0.0 0.0 0.00 0.00 0.00 99 1014.6
20260507100705 44 122 0.0 0.0 0.00 0.00 0.00 98 1014.7
20260507100203 44 172 0.0 0.0 0.00 0.00 0.00 97 1014.8
20260507095700 45 176 0.0 0.0 0.00 0.00 0.00 95 1014.7
20260507095156 45 235 0.0 0.0 0.00 0.00 0.00 96 1014.6
20260507094653 45 220 0.0 0.0 0.00 0.00 0.00 97 1014.8
20260507094150 45 219 0.0 0.0 0.00 0.00 0.00 96 1014.5
20260507093647 46 219 0.0 0.0 0.00 0.00 0.00 96 1014.6
20260507093146 46 220 1.0 1.0 0.00 0.00 0.00 96 1014.3
20260507092642 46 5 1.0 1.0 0.00 0.00 0.00 97 1014.5
20260507092139 46 359 0.0 0.0 0.00 0.00 0.00 96 1014.4
20260507091635 47 344 0.0 0.0 0.00 0.00 0.00 94 1014.6
20260507091131 47 346 0.0 0.0 0.00 0.00 0.00 94 1014.3
20260507090627 47 345 0.0 0.0 0.00 0.00 0.00 93 1014.6
20260507090125 47 337 0.0 0.0 0.00 0.00 0.00 94 1014.6
20260507085622 48 237 0.0 1.0 0.00 0.00 0.00 96 1014.4
20260507085118 48 239 0.0 0.0 0.00 0.00 0.00 95 1014.5
20260507084615 47 250 0.0 0.0 0.00 0.00 0.00 95 1014.3
20260507084112 48 233 0.0 0.0 0.00 0.00 0.00 96 1014.3
20260507083609 48 266 0.0 0.0 0.00 0.00 0.00 93 1014.6
20260507083106 48 266 0.0 0.0 0.00 0.00 0.00 94 1014.3
20260507082601 48 267 0.0 0.0 0.00 0.00 0.00 90 1014.6
20260507082058 48 277 0.0 0.0 0.00 0.00 0.00 90 1014.7
20260507081554 48 350 0.0 0.0 0.00 0.00 0.00 92 1014.4
20260507081051 48 248 2.0 2.0 0.00 0.00 0.00 97 1014.6
20260507080547 48 95 0.0 0.0 0.00 0.00 0.00 98 1014.5
20260507080044 48 95 0.0 0.0 0.00 0.00 0.00 98 1014.3
20260507075539 48 278 0.0 0.0 0.00 0.00 0.00 97 1014.5
20260507075036 48 278 0.0 0.0 0.00 0.00 0.00 96 1014.4
20260507074532 49 278 0.0 0.0 0.00 0.00 0.00 96 1014.5
20260507074031 49 278 0.0 0.0 0.00 0.00 0.00 93 1014.5
20260507073527 49 278 0.0 0.0 0.00 0.00 0.00 92 1014.3
20260507073023 49 307 0.0 0.0 0.00 0.00 0.00 90 1014.3
20260507072521 49 257 0.0 0.0 0.00 0.00 0.00 93 1014.4
20260507072018 49 263 0.0 0.0 0.00 0.00 0.00 93 1014.4
20260507071515 49 257 0.0 1.0 0.00 0.00 0.00 94 1014.6
20260507071012 49 252 1.0 2.0 0.00 0.00 0.00 96 1014.4
20260507070509 49 253 0.0 0.0 0.00 0.00 0.00 97 1014.3
20260507070010 49 250 2.0 2.0 0.00 0.00 0.00 97 1014.3
20260507065502 50 237 0.0 0.0 0.00 0.00 0.00 99 1014.4
20260507064959 50 351 0.0 0.0 0.00 0.00 0.00 99 1014.3
20260507064457 50 242 0.0 0.0 0.00 0.00 0.00 99 1014.3
20260507063955 49 242 0.0 0.0 0.00 0.00 0.00 99 1014.4
20260507063452 50 243 0.0 0.0 0.00 0.00 0.00 99 1014.3
20260507062949 50 247 0.0 0.0 0.00 0.00 0.00 99 1014.1
20260507062446 50 247 0.0 0.0 0.00 0.00 0.00 99 1014.3
20260507061943 50 239 0.0 1.0 0.00 0.00 0.00 99 1014.3
20260507061442 50 283 0.0 1.0 0.00 0.00 0.00 99 1014.2
20260507060940 50 254 0.0 2.0 0.00 0.00 0.00 99 1014.6
20260507060436 50 258 0.0 0.0 0.00 0.00 0.00 99 1014.5
20260507055933 50 259 0.0 0.0 0.00 0.00 0.00 99 1014.7
20260507055428 50 261 2.0 2.0 0.00 0.00 0.00 99 1014.7
20260507054920 50 272 0.0 0.0 0.00 0.00 0.00 99 1014.6
20260507054416 50 315 0.0 0.0 0.00 0.00 0.00 99 1014.6
20260507053913 50 319 0.0 0.0 0.00 0.00 0.00 99 1014.7
20260507053411 51 350 0.0 0.0 0.00 0.00 0.00 99 1014.6
20260507052910 51 283 0.0 0.0 0.00 0.00 0.00 99 1014.7
20260507052406 51 282 0.0 0.0 0.00 0.00 0.00 99 1014.9
20260507051903 51 270 0.0 1.0 0.00 0.00 0.00 99 1014.9
20260507051401 51 271 0.0 0.0 0.00 0.00 0.00 99 1014.8
20260507050857 51 272 0.0 0.0 0.00 0.00 0.00 99 1015.0
20260507050354 51 139 0.0 0.0 0.00 0.00 0.00 99 1015.0
20260507045851 51 139 0.0 0.0 0.00 0.00 0.00 99 1014.8
20260507045347 51 139 0.0 0.0 0.00 0.00 0.00 99 1014.8
20260507044844 51 139 0.0 0.0 0.00 0.00 0.00 99 1014.8
20260507044340 51 140 0.0 0.0 0.00 0.00 0.00 99 1014.9
20260507043831 51 140 0.0 0.0 0.00 0.00 0.00 99 1014.9
20260507043328 51 138 0.0 0.0 0.00 0.00 0.00 99 1014.6
20260507042825 51 152 0.0 0.0 0.00 0.00 0.00 99 1014.9
20260507042320 51 150 0.0 0.0 0.00 0.00 0.00 99 1014.7
20260507041817 51 150 0.0 0.0 0.00 0.00 0.00 99 1014.6
20260507041314 51 155 0.0 0.0 0.00 0.00 0.00 99 1014.8
20260507040811 51 131 0.0 0.0 0.00 0.00 0.00 99 1014.8
20260507040307 51 137 0.0 0.0 0.00 0.58 0.58 99 1014.9
20260507035803 51 137 0.0 0.0 0.00 0.58 0.58 99 1014.7
20260507035258 51 137 0.0 0.0 0.00 0.58 0.58 99 1014.7
20260507034757 51 137 0.0 0.0 0.00 0.58 0.58 99 1014.4
20260507034253 51 137 0.0 0.0 0.00 0.58 0.58 99 1014.6
20260507033752 51 137 0.0 0.0 0.00 0.58 0.58 99 1014.7
20260507033249 51 137 0.0 0.0 0.00 0.58 0.58 99 1014.8
20260507032746 51 137 0.0 0.0 0.00 0.58 0.58 99 1014.7
20260507032242 51 138 0.0 0.0 0.00 0.58 0.58 99 1014.7
20260507031738 51 138 0.0 0.0 0.00 0.58 0.58 99 1015.1
20260507031235 51 138 0.0 0.0 0.00 0.58 0.58 99 1015.0
20260507030732 51 138 0.0 0.0 0.00 0.58 0.58 99 1015.1
20260507030229 51 138 0.0 0.0 0.00 0.58 0.58 99 1015.1
20260507025727 51 112 0.0 0.0 0.00 0.58 0.58 99 1015.2
20260507025223 51 112 0.0 0.0 0.00 0.58 0.58 99 1015.0
20260507024722 51 112 0.0 0.0 0.00 0.58 0.58 99 1014.7
20260507024219 51 112 0.0 0.0 0.00 0.58 0.58 99 1014.6
20260507023714 51 112 0.0 0.0 0.00 0.58 0.58 99 1014.7
20260507023211 51 112 0.0 0.0 0.00 0.58 0.58 99 1014.7
20260507022709 51 112 0.0 0.0 0.00 0.58 0.58 99 1014.4
20260507022204 51 112 0.0 0.0 0.00 0.58 0.58 99 1014.8
20260507021701 51 112 0.0 0.0 0.00 0.58 0.58 99 1014.3
20260507021156 51 112 0.0 0.0 0.00 0.58 0.58 99 1014.7
20260507020655 51 112 0.0 0.0 0.00 0.58 0.58 99 1014.6
20260507020150 51 112 0.0 0.0 0.00 0.58 0.58 99 1014.3
20260507015649 51 112 0.0 0.0 0.00 0.58 0.58 99 1014.3
20260507015146 51 112 0.0 0.0 0.00 0.58 0.58 99 1014.6
20260507014642 51 112 0.0 0.0 0.00 0.58 0.58 99 1014.3
20260507014138 51 112 0.0 0.0 0.00 0.58 0.58 99 1014.1
20260507013636 51 112 0.0 0.0 0.00 0.58 0.58 99 1014.0
20260507013132 51 112 0.0 0.0 0.00 0.58 0.58 99 1014.2
20260507012629 51 111 0.0 0.0 0.00 0.58 0.58 99 1013.9
20260507012124 52 113 0.0 0.0 0.00 0.58 0.58 99 1014.4
20260507011623 52 113 0.0 0.0 0.00 0.58 0.58 99 1014.4
20260507011119 51 113 0.0 0.0 0.00 0.58 0.58 99 1014.4
20260507010614 51 113 0.0 0.0 0.00 0.58 0.58 99 1014.3
20260507010110 51 113 0.0 0.0 0.00 0.58 0.58 99 1014.1
20260507005608 51 113 0.0 0.0 0.00 0.58 0.58 98 1013.7
20260507005103 51 113 0.0 0.0 0.00 0.58 0.58 98 1014.0
20260507004600 51 112 0.0 0.0 0.00 0.58 0.58 97 1013.8
20260507004058 51 112 0.0 0.0 0.00 0.58 0.58 98 1013.7
20260507003554 51 112 0.0 0.0 0.00 0.58 0.58 98 1013.5
20260507003049 51 116 0.0 0.0 0.00 0.58 0.58 99 1013.6
20260507002546 52 121 0.0 0.0 0.00 0.58 0.58 99 1013.9